[[{"header":{"parameterUnit":"m.s-1","parameterCategory":1,"la1":30.2991,"la2":30.254,"lo1":-89.0895,"lo2":-89.0444,"dy":0.0017,"dx":0.0017,"nx":28,"ny":28,"refTime":"2024-07-22T21:00:00:Z","depth":0,"parameterNumber":2,"parameterNumberName":"U-component_of_WINDS"},"data":[0,0,0,0,0,0,0,0,0,0,0,0,0,0,0,0,0,0,0,0,0,0,0,0,0,0,0,0,0,0,0,0,0,0,0,0,0,0,0,0,0,0,0,0,0,0,0,0,0,0,0,0,0,0,0,0,0,0,0.3302,0.3302,0,0.3348,0.3348,0.3349,0.338,0.338,0.3381,0.3381,0.3428,0.3429,0.343,0,0,0,0,0,0,0,0,0,0,0,0,0,0.3241,0.3242,0.3302,0.3302,0.3303,0.3348,0.3348,0.3349,0.338,0.3381,0.3381,0.3381,0.3428,0.3429,0.343,0,0,0,0,0,0,0,0,0,0,0,0,0,0.3275,0.3242,0.3302,0.3324,0.3326,0.3348,0.3349,0.3349,0.338,0.3381,0.3381,0.3381,0.3427,0.3429,0.343,0.3433,0,0,0.3435,0.3436,0,0,0,0,0,0,0,0,0.3273,0.3277,0.332,0.3322,0.3325,0.3359,0.3344,0.3377,0.338,0.336,0.3381,0.3381,0.3405,0.3408,0.3416,0.3435,0.3437,0.3435,0.3436,0.3437,0.3437,0,0,0,0,0,0,0,0.3271,0.3276,0.332,0.3321,0.3324,0.3332,0.3337,0.3351,0.338,0.3362,0.3364,0.3369,0.3406,0.3414,0.3417,0.3438,0.3435,0.3436,0.3437,0.3438,0.3462,0.3461,0,0,0,0,0,0,0.3265,0.3273,0.3319,0.3321,0.33,0.3332,0.3338,0.3348,0.338,0.3385,0.3369,0.337,0.3411,0.3415,0.3419,0.3424,0.3437,0.3438,0.3439,0.3462,0.3462,0.3461,0,0,0,0,0,0,0.3263,0.3269,0.3317,0.3298,0.3305,0.3333,0.3343,0.3348,0.3357,0.3385,0.339,0.3372,0.3412,0.3417,0.3429,0.3426,0.3439,0.344,0.3462,0.3462,0.3461,0.3434,0,0,0,0,0,0,0.3262,0.3268,0.3269,0.3298,0.3306,0.3326,0.3343,0.3349,0.3359,0.3362,0.3389,0.3394,0.3413,0.3427,0.3431,0.3428,0.3441,0.3463,0.3462,0.3462,0.3435,0.3433,0.3431,0,0,0,0,0,0.3259,0.326,0.3269,0.3274,0.3308,0.3326,0.333,0.3352,0.3359,0.336,0.3379,0.3393,0.3426,0.3428,0.3433,0.3431,0.3463,0.3462,0.3462,0.3436,0.3433,0.3431,0,0,0,0,0,0,0.323,0.3264,0.3275,0.3284,0.3302,0.3331,0.3334,0.3348,0.3363,0.3365,0.3391,0.3397,0.3406,0.342,0.3421,0.3435,0.3446,0.3446,0.3425,0.3423,0.342,0.3416,0.3443,0,0,0,0,0,0.3224,0.3236,0.3265,0.3271,0.328,0.3305,0.3314,0.3328,0.3348,0.3355,0.3374,0.3392,0.3407,0.3416,0.3431,0.3438,0.3444,0.3439,0.3436,0.3434,0.3434,0.3438,0.3436,0.3459,0.3459,0.3459,0,0,0.3213,0.3233,0.3239,0.3266,0.3281,0.3293,0.3311,0.3322,0.3331,0.3357,0.337,0.3384,0.3406,0.3416,0.3421,0.3428,0.3429,0.3433,0.3432,0.3432,0.3437,0.3435,0.3433,0.3458,0.3459,0.3459,0,0,0.3199,0.3215,0.3222,0.3237,0.326,0.3277,0.3279,0.3306,0.3317,0.333,0.335,0.3361,0.3385,0.3399,0.341,0.3402,0.3415,0.3406,0.3393,0.3397,0.3395,0.3393,0.339,0.3388,0.3406,0.3405,0.3405,0,0.3182,0.32,0.3223,0.3234,0.3245,0.3269,0.3276,0.3289,0.3316,0.3323,0.333,0.3361,0.3377,0.339,0.3388,0.3396,0.3399,0.3402,0.3393,0.3392,0.3391,0.3388,0.3386,0.3404,0.3404,0.3404,0.3405,0,0.3178,0.319,0.3193,0.3218,0.3229,0.3238,0.3262,0.3271,0.3285,0.3301,0.3315,0.3335,0.3355,0.3359,0.3373,0.3374,0.3377,0.3389,0.34,0.3387,0.3384,0.3383,0.3402,0.3403,0.3403,0.3403,0,0,0.3145,0.3184,0.3184,0.3196,0.3223,0.3233,0.3243,0.3262,0.3269,0.3287,0.3295,0.3315,0.3325,0.3337,0.3353,0.3357,0.3348,0.3368,0.3369,0.3363,0.335,0.3341,0.3339,0.3358,0.3358,0.3358,0.3348,0,0.3134,0.3152,0.3174,0.3185,0.3196,0.322,0.3228,0.3246,0.3262,0.3274,0.3291,0.3305,0.3318,0.3325,0.333,0.3348,0.3346,0.3349,0.3365,0.3366,0.3358,0.3338,0.3328,0.3318,0.3347,0.3347,0.3347,0,0.3123,0.314,0.3152,0.3179,0.3184,0.3191,0.3211,0.3222,0.3243,0.3254,0.3267,0.3284,0.3296,0.3307,0.3322,0.3324,0.3332,0.3342,0.3342,0.3343,0.3355,0.3338,0.3315,0.3313,0.3346,0.3346,0.3346,0,0.3097,0.3122,0.3133,0.3142,0.3174,0.3178,0.3192,0.3213,0.3223,0.324,0.3247,0.3265,0.3274,0.3287,0.3309,0.3315,0.3322,0.3335,0.3331,0.333,0.333,0.333,0.3307,0.3337,0.3337,0.3337,0.3337,0,0.3081,0.3087,0.3121,0.3128,0.3135,0.3161,0.3167,0.3183,0.3202,0.3211,0.3233,0.3242,0.327,0.3282,0.3299,0.3308,0.3313,0.3322,0.3326,0.3319,0.3318,0.3324,0.3325,0.3337,0.3337,0.3337,0.3337,0,0.3052,0.3076,0.3088,0.3118,0.3125,0.313,0.3155,0.3162,0.3179,0.3191,0.3195,0.3222,0.3237,0.326,0.3282,0.3293,0.33,0.3307,0.3293,0.3295,0.3289,0.3289,0.3269,0.3268,0.3299,0.3299,0.3298,0,0.304,0.3046,0.3076,0.3084,0.3097,0.311,0.312,0.3145,0.3155,0.318,0.3183,0.32,0.3215,0.3238,0.3259,0.3276,0.3284,0.3276,0.3286,0.3279,0.3282,0.3281,0.3281,0.3273,0.3272,0.3272,0.3271,0,0.3016,0.3028,0.3042,0.3061,0.3073,0.3089,0.3105,0.3111,0.314,0.315,0.3165,0.3177,0.3199,0.3215,0.3235,0.3249,0.3265,0.3268,0.3268,0.326,0.3251,0.3255,0.3285,0.3268,0.3269,0.3269,0.3269,0.3269,0.2995,0.3001,0.3023,0.3038,0.3054,0.3069,0.3077,0.3096,0.3109,0.313,0.3144,0.3159,0.318,0.3208,0.3221,0.3232,0.3239,0.3239,0.3239,0.3238,0.3235,0.325,0.3236,0.3236,0.3237,0.3237,0.3237,0,0.2971,0.2987,0.3001,0.3024,0.3036,0.3051,0.307,0.3079,0.3092,0.311,0.3125,0.3143,0.3159,0.3181,0.3199,0.3204,0.3211,0.3208,0.3207,0.321,0.3229,0.3227,0.3201,0.3201,0.3201,0.3201,0.3201,0.3201,0.296,0.2971,0.2985,0.3003,0.3019,0.3034,0.3044,0.3058,0.3072,0.3092,0.3105,0.312,0.314,0.316,0.3175,0.3181,0.3186,0.318,0.3188,0.3205,0.3208,0.3211,0.321,0.3181,0.3181,0.3168,0.3168,0.3168]},{"header":{"parameterUnit":"m.s-1","parameterCategory":1,"la1":30.2991,"la2":30.254,"lo1":-89.0895,"lo2":-89.0444,"dy":0.0017,"dx":0.0017,"nx":28,"ny":28,"refTime":"2024-07-22T21:00:00:Z","depth":0,"parameterNumber":3,"parameterNumberName":"V-component_of_WINDS"},"data":[0,0,0,0,0,0,0,0,0,0,0,0,0,0,0,0,0,0,0,0,0,0,0,0,0,0,0,0,0,0,0,0,0,0,0,0,0,0,0,0,0,0,0,0,0,0,0,0,0,0,0,0,0,0,0,0,0,0,3.5337,3.5336,0,3.5286,3.5285,3.5285,3.5278,3.5278,3.5279,3.5279,3.5222,3.522,3.5218,0,0,0,0,0,0,0,0,0,0,0,0,0,3.5422,3.5421,3.5337,3.5336,3.5336,3.5286,3.5285,3.5285,3.5278,3.5278,3.5279,3.528,3.5222,3.522,3.5218,0,0,0,0,0,0,0,0,0,0,0,0,0,3.5379,3.542,3.5337,3.5326,3.5325,3.5286,3.5285,3.5285,3.5278,3.5278,3.5279,3.528,3.5223,3.522,3.5217,3.5184,0,0,3.5208,3.5207,0,0,0,0,0,0,0,0,3.5382,3.5376,3.5328,3.5327,3.5325,3.5289,3.5294,3.5251,3.5278,3.5295,3.5279,3.528,3.5243,3.5239,3.5227,3.5181,3.5179,3.5208,3.5206,3.5205,3.5204,0,0,0,0,0,0,0,3.5385,3.5378,3.5317,3.5328,3.5326,3.5322,3.5317,3.5286,3.5266,3.5294,3.5293,3.5288,3.5242,3.523,3.5226,3.5178,3.5208,3.5205,3.5203,3.5202,3.5101,3.51,0,0,0,0,0,0,3.5391,3.5381,3.5318,3.5315,3.5356,3.532,3.5314,3.53,3.5266,3.5262,3.5287,3.5288,3.5235,3.5229,3.5224,3.5182,3.5205,3.5202,3.52,3.5102,3.5101,3.51,0,0,0,0,0,0,3.5392,3.5385,3.532,3.5348,3.5339,3.5318,3.5302,3.5299,3.5286,3.5261,3.5257,3.5279,3.5235,3.5228,3.5194,3.518,3.5201,3.5198,3.5103,3.5102,3.51,3.5099,0,0,0,0,0,0,3.5395,3.5386,3.5374,3.5348,3.5338,3.5293,3.5301,3.5297,3.5282,3.5282,3.5252,3.5248,3.5235,3.5199,3.5191,3.5176,3.5196,3.5104,3.5102,3.5101,3.51,3.5097,3.5095,0,0,0,0,0,3.5398,3.5375,3.5374,3.5366,3.5323,3.5292,3.5287,3.5275,3.5281,3.5268,3.5252,3.5249,3.5183,3.5195,3.5187,3.5171,3.5105,3.5103,3.5101,3.5101,3.5098,3.5095,0,0,0,0,0,0,3.5398,3.5371,3.537,3.5337,3.5318,3.5291,3.5275,3.5272,3.5248,3.5249,3.5233,3.5227,3.5193,3.5179,3.5193,3.5136,3.5144,3.514,3.5147,3.5144,3.5142,3.5146,3.5193,0,0,0,0,0,3.5395,3.5374,3.535,3.5324,3.5314,3.5296,3.5282,3.5275,3.5253,3.5244,3.5225,3.5202,3.5176,3.5159,3.5134,3.5098,3.5091,3.5083,3.508,3.5079,3.5075,3.5054,3.505,3.5093,3.5093,3.5093,0,0,3.5387,3.5369,3.5357,3.5324,3.5307,3.5284,3.5289,3.5264,3.5246,3.5239,3.5207,3.5192,3.5165,3.513,3.5114,3.5117,3.5062,3.5076,3.5075,3.5072,3.5051,3.5047,3.5044,3.5092,3.5092,3.5092,0,0,3.536,3.5346,3.5322,3.5306,3.5282,3.527,3.5265,3.5239,3.5229,3.5197,3.5191,3.5168,3.5125,3.5106,3.509,3.5057,3.5053,3.5049,3.5037,3.5016,3.5013,3.501,3.4997,3.4993,3.5046,3.5046,3.5046,0,3.5353,3.532,3.531,3.5285,3.527,3.5265,3.524,3.5224,3.5192,3.5181,3.5186,3.5131,3.5112,3.5072,3.5064,3.5052,3.5044,3.5052,3.5015,3.5011,3.5008,3.4996,3.4991,3.5045,3.5046,3.5046,3.5046,0,3.5311,3.5288,3.5271,3.5243,3.5226,3.5201,3.5186,3.517,3.5164,3.5151,3.5117,3.5095,3.5065,3.5055,3.5049,3.5014,3.5017,3.5018,3.5026,3.5004,3.4992,3.4987,3.5045,3.5045,3.5045,3.5045,0,0,3.5282,3.525,3.5244,3.5231,3.5204,3.5185,3.5159,3.5132,3.5118,3.5096,3.5073,3.5036,3.5037,3.502,3.5011,3.4993,3.4967,3.4996,3.4996,3.4991,3.4926,3.4925,3.492,3.4965,3.4964,3.4963,3.4928,0,3.5252,3.5209,3.5199,3.5161,3.5139,3.5134,3.5111,3.5091,3.5078,3.5056,3.5041,3.5015,3.502,3.5009,3.4991,3.4974,3.4954,3.4976,3.4941,3.494,3.4948,3.4913,3.4912,3.488,3.4924,3.4923,3.4922,0,3.5211,3.5191,3.5151,3.5127,3.5117,3.5098,3.5071,3.5051,3.5028,3.5019,3.5001,3.4993,3.4965,3.4975,3.4934,3.495,3.4935,3.4924,3.4922,3.4918,3.4929,3.4907,3.487,3.4865,3.4915,3.4915,3.4916,0,3.5194,3.5156,3.5127,3.5116,3.5087,3.5073,3.506,3.5038,3.5022,3.4999,3.4988,3.4961,3.4946,3.4924,3.4909,3.4918,3.4869,3.4878,3.486,3.4861,3.485,3.485,3.4809,3.4841,3.4841,3.4842,3.4842,0,3.5161,3.5136,3.5119,3.5101,3.5073,3.5061,3.5033,3.502,3.5,3.4978,3.4971,3.495,3.4932,3.4908,3.4896,3.4864,3.4857,3.4849,3.4846,3.4849,3.485,3.4838,3.4839,3.484,3.4841,3.4841,3.4841,0,3.5136,3.5124,3.5092,3.5068,3.5061,3.5041,3.502,3.5001,3.4989,3.4961,3.4954,3.4934,3.4905,3.4889,3.4852,3.4844,3.4808,3.4806,3.4816,3.4815,3.4798,3.4799,3.4746,3.4738,3.4777,3.4777,3.4776,0,3.5116,3.5097,3.5072,3.5058,3.5045,3.5022,3.5006,3.4994,3.4977,3.4949,3.4934,3.4905,3.4882,3.4836,3.4817,3.4789,3.4786,3.4769,3.4781,3.4785,3.4785,3.4786,3.4783,3.4767,3.4767,3.4766,3.4766,0,3.508,3.5075,3.5054,3.503,3.5012,3.4992,3.4972,3.496,3.4944,3.4925,3.4898,3.488,3.4843,3.4814,3.4785,3.4769,3.4764,3.4763,3.4757,3.476,3.4766,3.4762,3.481,3.4764,3.4764,3.4764,3.4764,3.4764,3.5056,3.5039,3.5019,3.4995,3.4979,3.4961,3.4943,3.4928,3.4906,3.4876,3.487,3.484,3.4816,3.4776,3.476,3.4735,3.4738,3.473,3.4727,3.4725,3.4724,3.4771,3.473,3.473,3.473,3.473,3.473,0,3.502,3.5007,3.4985,3.4959,3.4939,3.4939,3.4917,3.49,3.4875,3.4854,3.4832,3.4799,3.4771,3.475,3.4721,3.4705,3.4702,3.4698,3.4698,3.4694,3.4724,3.4732,3.4701,3.4701,3.4701,3.4701,3.4701,3.4701,3.4999,3.497,3.4962,3.4925,3.4911,3.4884,3.4871,3.4853,3.4837,3.4801,3.4779,3.4766,3.4745,3.4714,3.4688,3.4682,3.4672,3.4668,3.4661,3.4689,3.4692,3.4695,3.4702,3.4666,3.4666,3.4634,3.4633,3.4633]}]]